This is the latest recevied weather packets stored in our database for station/object WY7ATH-2. If no packets are shown the sender has not sent any weather packets the latest 10 day(s).
| Time | Temp. | Humidity | Pressure | Rain* | Wind** | Luminosity | Snow |
|---|---|---|---|---|---|---|---|
| 1777871717 | 6.11° C | - | - | 0 mm | 0 m/s | - | - |
| 1777871120 | 5° C | - | - | 0 mm | 0 m/s | - | - |
| 1777870520 | 5.56° C | - | - | 0 mm | 0 m/s | - | - |
| 1777869923 | 5.56° C | - | - | 0 mm | 0 m/s | - | - |
| 1777869326 | 5.56° C | - | - | 0 mm | 0 m/s | - | - |
| 1777868729 | 5.56° C | - | - | 0 mm | 0 m/s | - | - |
| 1777868132 | 5.56° C | - | - | 0 mm | 0 m/s | - | - |
| 1777867532 | 5° C | - | - | 0 mm | 0 m/s | - | - |
| 1777866935 | 5.56° C | - | - | 0 mm | 0 m/s | - | - |
| 1777864548 | 6.67° C | - | - | 0 mm | 0 m/s | - | - |
| 1777863350 | 7.22° C | - | - | 5.33 mm | 0 m/s | - | - |
| 1777861559 | 8.89° C | - | - | 5.33 mm | 0 m/s | - | - |
| 1777859765 | 10° C | - | - | 9.91 mm | 0 m/s | - | - |
| 1777859168 | 12.22° C | - | - | 9.91 mm | 0 m/s | - | - |
| 1777857974 | 13.33° C | - | - | 9.91 mm | 0 m/s | - | - |
| 1777857377 | 14.44° C | - | - | 9.91 mm | 0 m/s | - | - |
| 1777856777 | 15° C | - | - | 9.91 mm | 0 m/s | - | - |
| 1777853792 | 16.67° C | - | - | 11.94 mm | 0 m/s | - | - |
| 1777852595 | 17.22° C | - | - | 13.46 mm | 0 m/s | - | - |
| 1777850804 | 18.89° C | - | - | 13.46 mm | 0 m/s | - | - |
| 1777848411 | 20° C | - | - | 12.7 mm | 0 m/s | - | - |
| 1777847814 | 20° C | - | - | 12.7 mm | 0 m/s | - | - |
| 1777847217 | 20° C | - | - | 12.7 mm | 0 m/s | - | - |
| 1777846620 | 20° C | - | - | 12.7 mm | 0 m/s | - | - |
| 1777844825 | 20.56° C | - | - | 13.97 mm | 0 m/s | - | - |
* Rain latest hour (hover to see other rain measurements)
** Current wind speed in m/s (hover to see current wind gust speed)